Regional Weather Roundup
Issued by NWS Upton, NY

Home | Current Version | Previous Version | Text Only | Print | Product List | Glossary On
Versions: 1 2 3 4 5 6 7 8 9 10 11 12 13 14 15 16 17 18 19 20 21 22 23 24 25 26 27 28 29 30 31 32 33 34 35 36 37 38 39 40 41 42 43 44 45 46 47 48 49 50
000
ASUS41 KOKX 231507
RWROKX

REGIONAL WEATHER ROUNDUP
NATIONAL WEATHER SERVICE NEW YORK NY
1100 AM EDT THU MAR 23 2017

NOTE: "FAIR" INDICATES FEW OR NO CLOUDS BELOW 12,000 FEET WITH NO
SIGNIFICANT WEATHER AND/OR OBSTRUCTIONS TO VISIBILITY.

NYZ071-072-176-178-NJZ106-104-231600-
NEW YORK CITY METRO AREA

CITY           SKY/WX    TMP DP  RH WIND       PRES   REMARKS
Central Park   SUNNY     31   1  28 VRB5      30.62S WCI  26
Wall St Helipt SUNNY     36   7  30 W6        30.62F WCI  31
LaGuardia APRT SUNNY     32   2  27 NW9       30.61S WCI  24
Kennedy INTL   SUNNY     33   1  25 NW14      30.62S WCI  23
Breezy Point     N/A    N/A N/A N/A W9          N/A
Newark/Liberty SUNNY     33  -3  21 NW14G23   30.62S WCI  23
Teterboro      SUNNY     30   2  30 NW10G17   30.61S WCI  21
$$

NYZ177-179-078>081-231600-
LONG ISLAND NEW YORK

CITY           SKY/WX    TMP DP  RH WIND       PRES   REMARKS
Jones Beach      N/A    N/A N/A N/A NW10        N/A
Matinecock PT  NOT AVBL
Farmingdale    SUNNY     31  -1  25 N13       30.59S WCI  21
MacArthur/ISP  SUNNY     31   0  26 NW14      30.57S WCI  21
Shirley        SUNNY     31  -1  25 N17G23    30.59R WCI  19
Westhampton    SUNNY     29  -2  26 NW17G23   30.59S WCI  17
East Hampton     N/A     28   1  30 W8G16     30.56S WCI  20
Montauk          N/A     28  -1  28 W9        30.57R WCI  19
$$

NYZ052-065-067-231600-
HUDSON VALLEY

CITY           SKY/WX    TMP DP  RH WIND       PRES   REMARKS
White Plains   SUNNY     30  -1  26 NW14G21   30.56S WCI  19
Newburgh       SUNNY     27   5  39 W5        30.58S WCI  21
Montgomery     SUNNY     28  -3  26 CALM      30.57S
Poughkeepsie   SUNNY     27  -1  30 VRB7      30.59S WCI  19
Albany         SUNNY     27  -2  28 NW9       30.58F WCI  18
$$

NJZ001-105-106-008-010-013-015-019>022-104-231600-
NEW JERSEY

CITY           SKY/WX    TMP DP  RH WIND       PRES   REMARKS
Newark/Liberty SUNNY     33  -3  21 NW14G23   30.62S WCI  23
Teterboro      SUNNY     30   2  30 NW10G17   30.61S WCI  21
Caldwell       SUNNY     31   1  28 E7        30.61S WCI  24
Somerville     SUNNY     32   1  26 N8        30.61R WCI  25
Linden           N/A     31   1  27 NE7       30.63S WCI  25
Sussex         SUNNY     29   0  28 W9        30.58S WCI  20
Andover          N/A     29  -1  27 VRB3      30.59S
Trenton        SUNNY     32   6  33 N12       30.62S WCI  23
Millville      SUNNY    N/A N/A N/A VRB3      30.64R
Atlantic City  SUNNY     34   5  29 VRB7      30.63R WCI  28
Wrightstown    SUNNY     32   6  33 VRB6      30.60R WCI  27
Toms River     SUNNY     33   2  26 NW9G18    30.63S WCI  25
Belmar         SUNNY    N/A N/A N/A NW10      30.62S
$$

PAZ047>061-062-071-231600-
EASTERN PENNSYLVANIA

CITY           SKY/WX    TMP DP  RH WIND       PRES   REMARKS
Philadelphia   SUNNY     33   6  32 NW5       30.65S WCI  29
Allentown      SUNNY     31   7  36 N7        30.62S WCI  24
Scranton       SUNNY     26   5  40 NW7       30.59R WCI  18
$$

CTZ002-004>006-009-010-012-RIZ004-006-007-MAZ004-011-015-231600-
SOUTHERN NEW ENGLAND
 IN CT

CITY           SKY/WX    TMP DP  RH WIND       PRES   REMARKS
Bradley INTL   SUNNY     28  -4  25 N7        30.54S WCI  21
Hartford       SUNNY     27  -1  30 VRB6      30.56F WCI  20
Danbury        SUNNY     28  -2  27 NW10      30.56F WCI  19
Wtrbury/Oxford SUNNY     27  -2  28 N13G22    30.53S WCI  16
Bridgeport     SUNNY     33  -4  20 NW14G20   30.58S WCI  23
Meriden        SUNNY     30  -3  24 N10G21    30.56S WCI  21
New Haven      SUNNY     30  -3  24 NW13      30.57S WCI  20
Chester          N/A     27  -6  24 NW7       30.53S WCI  19
Groton         SUNNY     30  -4  23 W14       30.54F WCI  19
Wilimantic     SUNNY     29  -2  26 N13       30.55R WCI  19

 IN RI

CITY           SKY/WX    TMP DP  RH WIND       PRES   REMARKS
Providence     SUNNY     29  -6  22 NW10G21   30.51F WCI  20
Block Island   SUNNY     27   3  35 NW14      30.54S WCI  16
Westerly       SUNNY     29  -5  22 NW9G21    30.54S WCI  20
 IN MA

CITY           SKY/WX    TMP DP  RH WIND       PRES   REMARKS
Boston         SUNNY     26  -4  27 W17G24    30.49S WCI  13
Worcester      SUNNY     23  -7  26 NW18      30.43S WCI   9
Westfield      SUNNY     28  -4  25 CALM      30.52F
Provincetown   SUNNY     27   8  44 NW20G26   30.48R WCI  13
Nantucket      SUNNY     28   1  31 NW15G28   30.48R WCI  16
$$

ANZ330-335-338-340-345-350-353-355-231600-
COASTAL MARINE OBSERVATIONS


STATION/POSITION TIME  SKY/WX   TEMP    WIND        PRES    VSBY  WAVE
                                AIR SEA DIR/SP/G                  HT/PER
                 (UTC)          (F)     (DEG/KT/KT) (MB)    (MI)  (FT/S)
NY HARB ENTRANCE 1350            28 41  320/ 12/ 16 1036.4          1/ 3
20 S FIRE ISLAND 1450            27 40  330/ 12/ 16 1036.3          2/ 4
GREAT SOUTH BAY  NOT AVBL
23 SSW MONTAUK P 1350            26 42              1035.2          3/ 4
15 E BARNEGAT LI 1430               42                N/A           3/ 4
HUDSON CANYON    1350            30 45  340/ 19/ 23 1035.4          7/ 6
KINGS POINT      1448            28 37              1036.2
EXECUTION ROCKS  NOT AVBL
CENTRAL LI SOUND 1415            26     310/ 14/ 17   N/A           2/ 3
EASTERN LI SOUND NOT AVBL
ROBBINS REEF     1448            28     310/ 10/ 13 1037.0
$$


>>>>>>>>>>>>>>>>>>>>>>>>>>>> KEY <<<<<<<<<<<<<<<<<<<<<<<<<<<
>                                                          <
>     SKY/WX - Sky Condition/Present Weather               <
>     TMP    - Temperature in Fahrenheit                   <
>     DP     - Dew Point in Fahrenheit                     <
>     RH     - Relative Humidity in Percent                <
>     WIND   - Direction (from) and Speed in MPH           <
>     PRES   - Mean Sea Level Pressure (inches of Hg)      <
>     WCI    - Wind Chill Index                            <
>     VSB    - VISIBILITY IN MILES                         <
>     HX     - HEAT INDEX                                  <
>     TC     - TEMPERATURE IN CELSIUS                      <
>     VRB    - VARIABLE WIND DIRECTION                     <
>                                                          <
>>>>>>>>>>>>>>>>>>>>>>>>>>>> KEY <<<<<<<<<<<<<<<<<<<<<<<<<<<



USA.gov is the U.S. government's official web portal to all federal, state and local government web resources and services.